Probability
74 71 74 71 61 61 58 55 58 65 58 65 55 52 48 45 48 52 55 52 48 48 42 39 39 42 45 42 42 39 35 35 23 23 32 45 29 29 6 29 16 16 3
65 68 74 65 65 61 61 52 58 58 61 55 58 48 42 35 45 45 35 35 32 35 42 45 45 26 48 45 45 35 39 32 29 23 26 29 39 32 26 26 10 6 10
52 48 61 52 48 48 52 48 42 42 48 35 45 42 42 39 35 32 26 26 23 23 23 32 26 29 39 35 29 35 39 16 39 23 19 39 35 29 26 13 10 23 10
48 42 35 39 42 42 45 39 32 32 32 32 32 39 42 45 35 23 29 32 32 26 19 23 13 23 19 16 16 19 13 6 16 10 3 3 10 10 6 6 6 16 13
42 29 35 32 45 42 32 26 26 23 23 32 29 29 39 23 13 19 29 23 29 29 26 19 10 13 6 10 0 10 3 6 10 6 3 0 6 3 0 0 0 6 6
42 35 35 29 35 29 26 23 26 19 26 29 23 23 16 10 0 0 6 23 29 26 23 19 16 6 0 0 0 0 0 0 0 6 3 3 0 0 3 3 3 3 3
42 39 39 39 32 29 23 23 23 29 29 26 19 19 23 10 0 0 0 13 23 23 23 23 6 6 6 6 0 0 0 0 0 0 0 0 0 0 0 0 0 3 3
42 42 39 32 35 32 32 29 32 32 32 29 23 23 19 6 0 0 0 0 10 19 16 16 10 6 0 0 6 6 3 3 0 0 0 0 0 0 0 0 0 0 0
39 35 35 32 29 29 26 26 29 29 26 23 19 19 19 3 0 0 0 6 10 6 3 3 3 3 0 0 0 3 3 0 0 0 0 0 0 0 0 0 0 0 0
23 19 26 35 32 32 26 29 29 26 23 19 19 19 16 3 0 0 0 6 3 6 3 0 0 0 0 0 0 0 0 0 0 0 0 0 0 0 0 0 0 0 0
23 23 26 23 23 26 32 23 19 23 19 19 10 6 6 3 0 0 0 0 3 3 0 0 0 0 0 0 0 0 0 0 0 0 0 0 0 0 0 0 0 0 0
16 19 19 19 10 6 13 23 29 26 19 10 6 3 3 3 0 0 0 0 0 0 0 0 0 0 0 0 0 0 0 0 0 0 0 0 0 0 0 0 0 0 0
16 13 13 13 16 6 13 16 23 19 13 6 3 3 3 3 3 0 0 0 0 0 0 0 0 0 0 0 0 0 0 0 0 0 0 0 0 0 0 0 0 0 0
13 13 13 13 13 10 13 10 10 10 3 0 0 0 3 3 0 0 0 0 0 0 0 0 0 0 0 0 0 0 0 0 0 0 0 0 0 0 0 0 0 0 0
10 13 10 10 10 0 0 0 0 0 0 0 0 0 0 0 0 0 0 0 0 0 0 0 0 0 0 0 0 0 0 0 0 0 0 0 0 0 0 0 0 0 0
10 10 10 0 0 0 0 0 0 0 0 0 0 0 0 0 0 0 0 0 0 0 0 0 0 0 0 0 0 0 0 0 0 0 0 0 0 0 0 0 0 0 0
10 6 6 0 0 0 0 0 0 0 0 0 0 0 0 0 0 0 0 0 0 0 0 0 0 0 0 0 0 0 0 0 0 0 0 0 0 0 0 0 0 0 0
3 3 3 3 0 0 0 0 0 0 0 0 0 0 0 0 0 0 0 0 0 0 0 0 0 0 0 0 0 0 0 0 0 0 0 0 0 0 0 0 0 0 0
0 0 0 0 0 0 0 0 0 0 0 0 0 0 0 0 0 0 0 0 0 0 0 0 0 0 0 0 0 0 0 0 0 0 0 0 0 0 0 0 0 0 0
0 0 0 0 0 0 0 0 0 0 0 0 0 0 0 0 0 0 0 0 0 0 0 0 0 0 0 0 0 0 0 0 0 0 0 0 0 0 0 0 0 0 0
0 0 0 0 0 0 0 0 0 0 0 0 0 0 0 0 0 0 0 0 0 0 0 0 0 0 0 0 0 0 0 0 0 0 0 0 0 0 0 0 0 0 0
0 0 0 0 0 0 0 0 0 0 0 0 0 0 0 0 0 0 0 0 0 0 0 0 0 0 0 0 0 0 0 0 0 0 0 0 0 0 0 0 0 0 0
0 0 0 0 0 0 0 0 0 0 0 0 0 0 0 0 0 0 0 0 0 0 0 0 0 0 0 0 0 0 0 0 0 0 0 0 0 0 0 0 0 0 0
0 0 0 0 0 0 0 0 0 0 0 0 0 0 0 0 0 0 0 0 0 0 0 0 0 0 0 0 0 0 0 0 0 0 0 0 0 0 0 0 0 0 0
0 0 0 0 0 0 0 0 0 0 0 0 0 0 0 0 0 0 0 0 0 0 0 0 0 0 0 0 0 0 0 0 0 0 0 0 0 0 0 0 0 0 0
0 0 0 0 0 0 0 0 0 0 0 0 0 0 0 0 0 0 0 0 0 0 0 0 0 0 0 0 0 0 0 0 0 0 0 0 0 0 0 0 0 0 0
Height
5854 5854 5853 5853 5853 5853 5853 5853 5853 5854 5854 5856 5858 5859 5860 5862 5864 5865 5866 5868 5869 5870 5871 5872 5873 5874 5874 5874 5875 5875 5875 5875 5875 5875 5875 5875 5875 5875 5874 5874 5874 5873 5872
5852 5851 5851 5851 5850 5850 5849 5850 5850 5850 5850 5851 5853 5855 5856 5857 5859 5860 5861 5863 5864 5865 5866 5867 5868 5868 5869 5869 5869 5870 5870 5870 5870 5870 5869 5869 5869 5868 5868 5868 5867 5867 5867
5849 5849 5848 5848 5847 5847 5847 5846 5846 5846 5846 5847 5849 5850 5851 5853 5854 5855 5857 5858 5859 5860 5861 5862 5862 5863 5863 5863 5863 5863 5863 5863 5863 5863 5863 5863 5862 5862 5861 5861 5860 5860 5859
5847 5846 5846 5845 5844 5844 5844 5843 5843 5842 5842 5843 5844 5846 5847 5848 5849 5851 5852 5853 5854 5854 5855 5855 5856 5857 5857 5857 5857 5857 5857 5857 5856 5856 5856 5855 5855 5854 5854 5853 5853 5852 5851
5844 5843 5842 5842 5841 5841 5840 5840 5839 5839 5838 5839 5840 5841 5842 5843 5845 5846 5847 5848 5848 5849 5849 5849 5850 5850 5850 5850 5850 5850 5850 5849 5849 5849 5848 5848 5847 5846 5845 5845 5844 5843 5842
5841 5840 5839 5839 5838 5837 5837 5837 5836 5836 5836 5836 5836 5837 5838 5839 5840 5841 5842 5842 5843 5843 5844 5844 5844 5844 5844 5843 5843 5843 5843 5842 5841 5841 5840 5839 5839 5838 5837 5836 5835 5834 5833
5838 5836 5836 5835 5834 5834 5833 5833 5832 5832 5832 5832 5832 5833 5833 5834 5836 5836 5837 5837 5837 5838 5838 5838 5838 5837 5837 5836 5835 5835 5834 5834 5834 5833 5832 5831 5830 5828 5827 5826 5825 5824 5822
5835 5833 5832 5831 5831 5830 5830 5830 5829 5829 5829 5828 5828 5829 5830 5830 5831 5831 5831 5831 5831 5831 5831 5831 5831 5830 5830 5828 5827 5827 5826 5825 5825 5824 5823 5821 5820 5819 5817 5816 5814 5813 5811
5831 5830 5829 5828 5827 5827 5826 5826 5825 5825 5825 5825 5825 5825 5825 5826 5826 5826 5826 5825 5825 5825 5825 5824 5823 5823 5822 5821 5820 5820 5818 5817 5815 5814 5813 5811 5810 5808 5807 5805 5803 5802 5800
5827 5826 5825 5824 5823 5823 5822 5822 5822 5822 5821 5821 5821 5820 5820 5820 5820 5820 5820 5819 5819 5819 5818 5817 5816 5815 5814 5813 5812 5811 5810 5808 5807 5805 5803 5802 5800 5798 5796 5794 5792 5790 5787
5822 5821 5821 5820 5819 5819 5818 5818 5817 5817 5817 5816 5816 5815 5815 5815 5815 5814 5814 5813 5813 5812 5811 5810 5809 5808 5807 5805 5804 5802 5801 5799 5798 5796 5794 5792 5790 5788 5785 5783 5780 5778 5775
5817 5816 5816 5815 5815 5814 5814 5813 5813 5812 5812 5811 5811 5810 5810 5809 5809 5808 5807 5807 5806 5805 5804 5803 5801 5800 5798 5797 5795 5794 5792 5790 5788 5786 5784 5781 5779 5776 5773 5770 5767 5765 5762
5812 5811 5811 5810 5810 5809 5809 5808 5807 5807 5806 5806 5806 5805 5804 5804 5803 5802 5801 5800 5799 5798 5797 5795 5794 5792 5790 5788 5786 5784 5782 5780 5777 5775 5773 5770 5767 5764 5761 5758 5755 5752 5749
5806 5806 5805 5805 5804 5804 5803 5802 5802 5801 5801 5800 5800 5799 5798 5798 5797 5796 5794 5793 5792 5790 5789 5787 5786 5784 5781 5779 5777 5774 5772 5770 5767 5764 5761 5758 5755 5752 5749 5745 5742 5739 5735
5801 5800 5799 5799 5798 5798 5797 5797 5796 5796 5795 5794 5793 5793 5792 5791 5790 5789 5787 5786 5784 5782 5781 5779 5777 5775 5772 5770 5767 5764 5762 5759 5756 5753 5749 5746 5743 5739 5736 5732 5728 5724 5721
5795 5795 5794 5793 5793 5792 5791 5790 5790 5789 5789 5787 5787 5786 5785 5784 5782 5781 5780 5778 5776 5774 5772 5770 5768 5765 5763 5760 5757 5754 5751 5748 5745 5741 5738 5734 5730 5726 5723 5719 5715 5711 5707
5789 5788 5788 5788 5787 5786 5785 5784 5784 5783 5782 5781 5780 5779 5778 5776 5775 5773 5771 5769 5767 5765 5763 5760 5757 5755 5752 5750 5747 5743 5740 5737 5733 5730 5726 5722 5718 5714 5709 5706 5701 5697 5693
5783 5783 5782 5782 5781 5780 5779 5778 5777 5777 5776 5774 5773 5772 5770 5768 5767 5765 5763 5761 5759 5756 5754 5751 5748 5745 5742 5739 5736 5733 5729 5726 5722 5718 5714 5710 5706 5702 5697 5693 5689 5685 5682
5777 5777 5777 5776 5775 5774 5774 5773 5772 5771 5769 5768 5767 5765 5763 5761 5759 5757 5754 5753 5750 5747 5744 5741 5738 5735 5732 5729 5726 5722 5719 5715 5711 5707 5703 5699 5694 5690 5686 5682 5678 5675 5671
5772 5772 5771 5771 5770 5769 5768 5767 5766 5764 5763 5762 5760 5758 5756 5754 5751 5749 5746 5744 5741 5738 5735 5732 5729 5726 5722 5719 5715 5712 5708 5704 5700 5696 5692 5688 5684 5680 5676 5672 5668 5665 5662
5767 5767 5766 5766 5765 5764 5763 5761 5760 5758 5756 5755 5753 5751 5749 5746 5744 5741 5738 5735 5732 5729 5725 5722 5719 5716 5713 5709 5706 5702 5698 5694 5690 5686 5683 5678 5674 5670 5667 5663 5660 5656 5653
5763 5762 5761 5760 5759 5758 5757 5755 5754 5752 5750 5748 5746 5743 5741 5738 5735 5732 5729 5726 5723 5720 5717 5714 5710 5707 5703 5699 5696 5692 5688 5684 5681 5677 5673 5669 5666 5662 5658 5655 5651 5648 5645
5758 5757 5756 5755 5754 5753 5751 5749 5747 5745 5743 5741 5738 5735 5732 5730 5727 5724 5721 5718 5715 5711 5708 5705 5701 5698 5694 5690 5686 5683 5679 5675 5672 5668 5665 5661 5657 5654 5650 5647 5644 5640 5637
5753 5752 5751 5750 5748 5747 5745 5743 5740 5738 5735 5733 5730 5727 5724 5722 5719 5716 5713 5710 5706 5703 5700 5696 5692 5689 5685 5681 5678 5674 5670 5667 5663 5660 5656 5653 5650 5646 5643 5640 5637 5633 5630
5748 5747 5746 5744 5742 5740 5738 5736 5733 5731 5728 5725 5722 5720 5717 5714 5711 5708 5705 5701 5698 5695 5691 5688 5684 5680 5677 5673 5669 5666 5662 5659 5655 5652 5649 5645 5642 5639 5636 5633 5630 5627 5624
5743 5741 5740 5738 5736 5734 5731 5729 5726 5724 5721 5718 5715 5712 5709 5706 5703 5700 5697 5693 5690 5686 5683 5679 5676 5672 5669 5665 5661 5658 5654 5651 5648 5645 5642 5638 5635 5632 5629 5626 5623 5621 5617
Wind_Speed
12 12 13 12 11 11 12 14 15 16 18 19 20 20 20 19 21 21 21 21 21 21 21 21 21 21 21 21 22 21 22 22 22 22 21 22 22 22 22 22 22 22 22
13 13 13 13 12 12 13 14 15 16 18 19 20 20 19 19 21 21 22 22 22 23 23 23 23 23 23 23 23 24 24 24 24 23 23 23 23 24 25 25 25 25 25
14 13 13 13 14 13 13 14 14 15 17 18 20 20 19 19 20 21 21 22 23 24 25 25 24 24 25 25 25 25 26 26 26 26 26 26 26 26 27 27 28 28 28
14 15 14 14 13 13 13 14 14 15 16 17 19 18 19 19 20 20 21 22 23 24 24 24 24 25 26 27 27 27 27 27 28 28 28 28 29 29 29 29 30 31 31
15 15 15 15 14 14 14 14 15 15 16 16 17 18 19 19 19 20 22 22 23 23 24 24 25 25 27 28 29 29 29 29 29 29 30 30 30 31 31 32 32 33 33
17 17 16 16 16 16 15 15 15 15 15 15 17 18 19 19 19 20 21 22 23 24 24 25 25 26 28 29 29 30 31 31 31 31 31 32 33 33 33 33 33 34 35
18 18 17 17 16 16 15 15 15 15 15 15 16 17 18 18 19 20 21 23 24 24 25 26 27 28 29 29 30 31 32 32 32 32 32 33 33 33 34 36 37 37 37
19 18 18 17 17 16 16 15 15 15 15 16 16 17 18 18 20 21 23 24 25 25 27 28 28 29 30 30 28 29 30 31 31 32 32 33 33 34 35 37 38 39 40
20 19 18 17 17 17 17 17 17 17 17 16 17 17 18 18 19 21 22 24 24 25 27 27 28 28 28 28 29 29 30 31 33 33 34 34 34 35 36 38 39 40 41
21 20 20 19 19 19 18 18 18 18 18 18 18 19 20 20 21 21 22 23 24 25 26 27 28 29 29 29 29 30 30 31 32 32 34 35 35 36 37 39 40 41 42
22 21 20 19 19 19 19 19 20 20 20 20 20 20 20 21 21 22 23 24 25 26 26 27 27 28 30 30 31 31 31 32 33 34 35 36 37 38 39 41 42 42 43
22 21 21 21 21 20 20 19 20 21 21 22 22 21 21 21 22 23 24 25 26 26 26 27 28 29 30 31 32 32 33 34 35 35 36 37 38 39 40 41 42 43 44
23 23 22 22 22 22 21 21 21 21 21 21 22 23 23 23 23 24 25 25 26 27 28 29 29 30 31 32 32 33 33 34 35 36 37 39 40 41 41 42 43 44 45
23 23 23 23 23 22 22 22 23 23 23 22 22 23 24 24 24 25 26 28 28 29 29 30 31 32 32 33 34 34 34 35 37 38 38 39 40 41 42 43 45 46 46
23 23 23 22 22 22 22 22 23 23 23 24 24 25 25 25 26 27 28 29 30 30 30 31 32 33 33 34 34 34 35 36 37 37 38 39 40 42 42 43 45 45 45
23 23 22 22 22 22 22 22 23 24 24 24 24 25 25 26 27 27 28 29 30 31 32 33 34 34 35 35 35 35 35 36 37 38 39 40 41 42 43 43 44 44 44
22 22 22 22 22 22 22 22 22 22 23 24 24 25 25 26 26 28 29 30 31 32 33 34 34 34 35 35 36 36 36 37 38 39 39 40 41 41 41 41 41 41 41
21 21 21 21 21 20 20 20 21 21 22 23 24 25 25 26 27 29 29 30 31 32 33 34 34 34 35 36 37 37 37 38 38 38 38 39 39 39 39 39 39 38 38
20 20 20 20 20 19 19 19 20 21 22 23 24 24 25 27 28 28 29 30 31 32 33 34 34 35 35 35 36 35 36 36 37 37 37 37 37 37 36 36 36 35 35
18 18 19 19 19 19 19 20 21 21 22 24 24 25 26 27 28 29 30 31 32 33 33 33 33 33 33 34 34 35 35 36 36 36 36 35 35 34 34 33 32 32 32
18 17 18 18 18 19 19 20 21 22 23 24 25 26 26 27 28 29 30 31 31 31 32 32 32 33 33 34 34 35 35 35 35 35 34 34 33 32 32 31 31 30 30
17 18 19 19 20 20 21 22 23 24 24 25 26 27 28 28 29 29 30 31 31 31 32 32 33 33 34 34 34 34 34 34 33 32 32 32 31 31 30 30 29 29 28
18 19 19 19 20 21 22 23 24 25 26 27 28 29 29 29 29 29 29 30 30 31 32 32 32 32 33 34 34 33 33 32 31 31 31 31 30 30 29 28 27 27 26
19 19 19 20 21 22 22 23 24 26 26 27 28 28 28 28 28 28 29 30 30 30 31 32 32 32 33 32 32 31 31 31 30 30 30 29 29 28 27 27 26 25 25
18 19 19 20 22 23 24 25 25 26 26 27 27 27 27 27 28 28 29 29 30 30 30 31 31 31 31 31 30 30 30 29 29 29 28 28 27 27 26 25 25 25 24
18 19 20 21 22 23 23 24 25 25 25 26 26 26 27 28 28 29 29 30 31 31 31 31 31 30 30 30 30 29 29 28 28 27 27 26 25 24 24 24 24 24 24
Wind_Direction
299 293 292 292 291 285 274 268 264 260 254 248 247 246 248 249 248 248 250 253 254 255 255 256 258 261 263 266 268 270 272 273 273 272 273 273 274 274 275 273 275 277 276
298 292 289 292 290 285 280 273 270 264 256 251 249 247 249 250 249 249 250 252 254 256 257 258 260 262 264 267 268 270 272 273 273 273 275 273 273 275 274 274 275 274 276
296 292 292 293 291 286 282 277 274 269 261 254 252 249 249 251 250 250 251 254 256 257 257 259 262 265 266 268 270 271 272 272 274 274 276 275 274 275 275 275 275 276 276
298 294 293 293 292 290 286 281 278 273 267 261 257 254 253 252 252 253 255 257 259 261 260 262 264 266 269 271 272 273 273 274 275 275 276 276 276 275 274 275 276 277 277
296 295 295 294 291 291 289 284 281 277 271 265 261 257 256 255 257 259 259 260 261 264 266 265 267 269 271 271 272 273 274 275 278 277 276 276 275 275 276 276 277 277 278
293 292 294 294 292 291 288 283 279 276 272 268 265 261 260 260 259 262 263 264 264 266 268 269 270 270 273 272 273 274 275 276 277 278 278 277 276 275 277 277 278 278 278
294 293 293 294 291 288 287 287 284 280 277 275 269 265 262 263 264 265 266 267 267 267 269 271 273 273 275 276 275 275 276 277 279 280 280 279 278 278 278 278 278 279 279
292 293 293 289 288 287 285 286 285 287 284 279 271 271 270 268 267 268 268 269 269 271 273 273 274 275 275 277 277 278 279 279 278 279 281 281 281 282 281 281 281 281 281
290 291 290 287 286 285 284 283 285 285 285 281 275 274 272 270 271 271 273 274 274 276 276 277 278 278 279 281 282 282 282 282 281 281 281 282 282 282 283 283 282 282 282
291 291 290 288 286 285 285 284 282 284 285 280 279 278 276 274 275 275 275 276 277 278 278 279 281 280 282 284 283 282 282 283 284 284 283 284 284 284 284 284 283 283 283
289 290 290 290 290 287 284 282 281 281 284 282 282 281 280 279 280 280 278 277 279 281 282 284 283 283 283 283 284 284 284 285 285 285 284 284 284 284 284 285 285 285 285
286 287 288 289 289 289 288 284 282 282 281 281 280 281 281 280 280 281 281 282 283 284 284 286 285 285 285 285 286 287 287 288 288 286 285 286 285 285 286 287 287 287 287
283 285 286 286 286 286 285 283 283 284 283 282 281 281 281 281 281 281 283 285 285 285 286 286 287 288 289 288 289 291 291 291 290 289 288 289 289 289 289 289 290 289 289
283 285 285 285 285 284 283 283 282 283 284 282 280 281 283 284 284 283 283 284 283 284 287 288 290 292 291 291 292 291 291 291 291 290 290 289 290 290 290 290 290 290 290
282 284 284 283 281 282 282 281 283 283 282 280 279 280 282 283 284 284 285 286 286 288 288 288 290 291 291 292 293 293 292 292 292 292 292 291 292 292 292 291 291 291 291
280 281 281 281 280 280 280 280 282 283 282 280 279 281 283 284 283 283 284 285 286 287 288 289 290 290 290 291 293 293 293 293 293 294 294 294 295 295 295 294 294 294 294
279 280 282 282 283 284 282 283 284 285 284 284 285 286 286 285 285 286 285 285 287 289 291 290 290 290 291 292 293 295 295 296 297 297 297 297 297 297 297 297 297 297 297
278 280 282 284 285 287 287 286 286 286 286 288 289 289 290 289 287 287 288 290 291 292 293 292 293 294 294 294 295 295 296 297 298 298 299 300 300 300 299 299 298 298 298
279 281 282 283 285 287 288 288 287 288 289 291 292 292 292 291 290 290 291 292 293 294 294 295 296 296 296 296 295 296 297 299 300 301 302 302 302 301 301 300 300 300 299
280 283 284 285 286 288 291 292 292 292 294 295 296 295 293 292 292 293 293 292 293 295 296 296 296 296 296 297 298 298 299 301 302 303 303 302 303 303 302 302 302 301 300
279 284 287 288 289 290 292 294 296 296 297 297 296 296 294 293 294 295 295 296 297 298 298 297 298 298 298 300 300 300 301 301 302 302 302 303 304 304 303 303 302 302 302
282 285 288 290 292 293 293 295 297 297 298 298 297 296 296 297 297 297 297 297 297 297 298 299 300 300 300 301 301 301 301 301 301 302 303 304 306 305 304 304 304 304 303
286 288 291 292 293 294 296 297 297 297 297 298 298 297 297 298 298 299 300 300 300 300 301 301 302 302 302 303 303 302 302 303 303 303 303 304 306 306 305 305 306 306 305
287 288 290 292 294 296 297 297 298 299 299 300 300 300 300 300 300 300 301 301 302 302 302 302 303 303 303 303 303 303 302 302 302 303 304 304 305 305 305 305 306 308 308
287 289 291 293 295 297 298 299 300 300 301 301 301 302 302 302 302 302 302 302 303 303 304 304 304 304 304 303 303 303 303 303 304 306 307 306 306 306 307 307 308 308 309
290 293 295 298 299 300 300 302 302 303 304 304 304 303 303 303 303 302 302 302 302 303 303 303 303 304 305 305 305 305 305 306 306 307 308 308 308 308 309 309 309 309 309